FW0202 Weather Reports


time (UTC)temp
C
wind
direction
speed
KPH
gust
KPH
rain 1hr
cm
rain 24hr
cm
rain mn
cm
humidity
%
barometer
mb
20260505024117 26 186 6.4 11.3 0.00 0.00 0.00 71 995.8
20260505023613 25 200 8.0 14.5 0.00 0.00 0.00 75 995.5
20260505023110 26 191 4.8 14.5 0.00 0.00 0.00 72 995.8
20260505022605 27 205 12.9 14.5 0.00 0.00 0.00 68 996.1
20260505022102 26 187 6.4 16.1 0.00 0.00 0.00 71 996.0
20260505021557 26 195 8.0 16.1 0.00 0.00 0.00 72 996.2
20260505021053 26 205 9.7 11.3 0.00 0.00 0.00 72 996.2
20260505020548 25 179 6.4 9.7 0.00 0.00 0.00 75 996.1
20260505020259 25 166 6.4 9.7 0.00 0.00 0.00 75 996.3
20260505015746 25 181 6.4 11.3 0.00 0.00 0.00 75 996.3
20260505015016 25 183 6.4 11.3 0.00 0.00 0.00 76 996.4
20260505014744 25 175 6.4 9.7 0.00 0.00 0.00 78 996.5
20260505014008 25 195 8.0 9.7 0.00 0.00 0.00 74 996.4
20260505013453 25 191 8.0 9.7 0.00 0.00 0.00 75 996.9
20260505012949 25 196 8.0 9.7 0.00 0.00 0.00 73 997.0
20260505012446 24 171 6.4 9.7 0.00 0.00 0.00 78 997.0
20260505011932 25 195 6.4 9.7 0.00 0.00 0.00 75 997.2
20260505011416 24 177 6.4 11.3 0.00 0.00 0.00 78 997.2
20260505010915 25 181 8.0 11.3 0.00 0.00 0.00 75 997.1
20260505010416 25 188 6.4 9.7 0.00 0.00 0.00 73 997.4
20260505005915 25 205 9.7 9.7 0.00 0.00 0.00 74 997.3
20260505005619 25 178 6.4 11.3 0.00 0.00 0.00 74 997.3
20260505005115 24 186 6.4 11.3 0.00 0.00 0.00 75 997.4
20260505004353 24 169 6.4 9.7 0.00 0.00 0.00 78 997.4
20260505003848 23 180 6.4 9.7 0.00 0.00 0.00 79 997.3
20260505003343 24 167 6.4 9.7 0.00 0.00 0.00 78 997.4
20260505002820 24 164 8.0 9.7 0.00 0.00 0.00 78 997.5
20260505002316 24 171 4.8 9.7 0.00 0.00 0.00 78 997.5
20260505001812 23 175 6.4 9.7 0.00 0.00 0.00 79 997.7
20260505001258 23 176 6.4 9.7 0.00 0.00 0.00 79 997.8
20260505001238 23 185 6.4 9.7 0.00 0.00 0.00 79 997.8
20260505000249 23 183 8.0 9.7 0.00 0.00 0.00 81 998.0
20260504235734 23 168 8.0 12.9 0.00 0.00 0.00 79 997.8
20260504235231 23 176 8.0 14.5 0.00 0.00 0.00 77 997.7
20260504234726 24 184 9.7 14.5 0.00 0.00 0.00 76 998.0
20260504234221 24 172 4.8 11.3 0.00 0.00 0.00 76 997.9
20260504233719 23 191 6.4 8.0 0.00 0.00 0.00 81 997.8
20260504233213 23 170 6.4 9.7 0.00 0.00 0.00 80 997.9
20260504232709 22 177 6.4 9.7 0.00 0.00 0.00 82 997.9
20260504232426 22 185 6.4 11.3 0.00 0.00 0.00 82 998.0
20260504231652 21 184 6.4 11.3 0.00 0.00 0.00 83 997.9
20260504231407 22 191 8.0 11.3 0.00 0.00 0.00 82 998.0
20260504230642 22 170 8.0 11.3 0.00 0.00 0.00 83 998.0
20260504230400 22 205 9.7 11.3 0.00 0.00 0.00 81 998.2
20260504225642 22 185 6.4 9.7 0.00 0.00 0.00 81 997.7
20260504225141 21 181 6.4 9.7 0.00 0.00 0.00 84 998.0
20260504224636 21 170 8.0 9.7 0.00 0.00 0.00 84 998.1
20260504224134 20 167 8.0 9.7 0.00 0.00 0.00 86 998.1
20260504223629 20 174 6.4 9.7 0.00 0.00 0.00 85 998.3
20260504223125 20 169 9.7 9.7 0.00 0.00 0.00 85 998.1
20260504222620 19 180 6.4 9.7 0.00 0.00 0.00 92 998.2
20260504222116 18 167 8.0 9.7 0.00 0.00 0.00 94 998.1
20260504221610 18 165 8.0 9.7 0.00 0.00 0.00 96 998.1
20260504221333 17 164 8.0 9.7 0.00 0.00 0.00 97 998.1
20260504220603 17 170 8.0 9.7 0.00 0.00 0.00 97 998.1
20260504220100 17 174 8.0 9.7 0.00 0.00 0.00 98 998.0
20260504215545 17 176 8.0 9.7 0.00 0.00 0.00 98 997.9
20260504215044 17 176 6.4 11.3 0.00 0.00 0.00 98 998.0
20260504214759 17 189 8.0 11.3 0.00 0.00 0.00 98 998.0
20260504214022 17 180 6.4 11.3 0.00 0.00 0.00 98 997.9
20260504213518 16 193 8.0 9.7 0.00 0.00 0.00 98 998.0
20260504213010 16 185 8.0 9.7 0.00 0.00 0.00 98 997.9
20260504212510 16 190 9.7 9.7 0.00 0.00 0.00 98 997.7
20260504211946 16 199 9.7 9.7 0.00 0.00 0.00 98 997.6
20260504211432 16 180 8.0 9.7 0.00 0.00 0.00 98 997.9
20260504210927 16 178 6.4 9.7 0.00 0.00 0.00 99 997.9
20260504210413 16 180 8.0 9.7 0.00 0.00 0.00 98 997.6
20260504210136 16 169 8.0 9.7 0.00 0.00 0.00 98 997.7
20260504205405 16 172 8.0 9.7 0.00 0.00 0.00 99 997.6
20260504204831 16 180 6.4 9.7 0.00 0.00 0.00 99 997.6
20260504204326 15 177 8.0 9.7 0.00 0.00 0.00 99 997.5
20260504203811 15 176 8.0 9.7 0.00 0.00 0.00 99 997.6
20260504203308 15 182 8.0 9.7 0.00 0.00 0.00 99 997.4
20260504202804 15 177 6.4 9.7 0.00 0.00 0.00 99 997.5
20260504202249 15 179 8.0 8.0 0.00 0.00 0.00 99 997.2
20260504201745 15 184 6.4 8.0 0.00 0.00 0.00 99 997.4
20260504201231 15 177 6.4 8.0 0.00 0.00 0.00 98 997.1
20260504200726 15 179 8.0 8.0 0.00 0.00 0.00 98 997.2
20260504200222 15 180 6.4 9.7 0.00 0.00 0.00 99 997.2
20260504195720 15 172 8.0 9.7 0.00 0.00 0.00 98 997.3
20260504195214 16 184 8.0 9.7 0.00 0.00 0.00 98 997.2
20260504194707 16 176 8.0 9.7 0.00 0.00 0.00 99 997.1
20260504194207 16 178 8.0 9.7 0.00 0.00 0.00 98 997.0
20260504193901 16 173 8.0 9.7 0.00 0.00 0.00 99 997.1
20260504193137 16 178 8.0 9.7 0.00 0.00 0.00 99 997.2
20260504192637 16 174 8.0 9.7 0.00 0.00 0.00 98 997.1
20260504192359 16 175 8.0 9.7 0.00 0.00 0.00 99 996.9
20260504191615 16 173 8.0 9.7 0.00 0.00 0.00 98 997.0
20260504191106 16 168 8.0 9.7 0.00 0.00 0.00 98 997.2
20260504190547 16 168 8.0 9.7 0.00 0.00 0.00 98 997.1
20260504190042 16 176 8.0 9.7 0.00 0.00 0.00 98 997.0
20260504185539 16 171 8.0 9.7 0.00 0.00 0.00 98 996.9
20260504185036 16 170 8.0 9.7 0.00 0.03 0.00 98 996.7
20260504184521 16 175 8.0 9.7 0.00 0.10 0.00 98 996.6
20260504184005 16 179 6.4 9.7 0.00 0.13 0.00 98 996.7
20260504183452 16 173 8.0 9.7 0.00 0.18 0.00 98 996.8
20260504183202 16 172 8.0 9.7 0.00 0.23 0.00 98 996.7
20260504182912 16 167 8.0 9.7 0.00 0.25 0.00 98 996.6
20260504181929 16 180 8.0 8.0 0.00 0.25 0.00 98 996.4
20260504181426 16 178 6.4 9.7 0.00 0.25 0.00 98 996.4
20260504180912 16 172 8.0 9.7 0.00 0.25 0.00 98 996.5
20260504180356 16 167 8.0 9.7 0.00 0.25 0.00 98 996.3
20260504175831 16 169 8.0 9.7 0.00 0.25 0.00 98 996.5
20260504175805 16 176 6.4 9.7 0.00 0.25 0.00 98 996.6
20260504174825 16 171 8.0 9.7 0.00 0.25 0.00 98 996.2
20260504174320 16 180 8.0 9.7 0.00 0.25 0.00 98 996.4
20260504173756 16 181 8.0 9.7 0.00 0.25 0.00 98 996.3
20260504173510 16 171 8.0 9.7 0.00 0.25 0.00 98 996.3
20260504172747 16 174 8.0 9.7 0.00 0.25 0.00 98 996.3
20260504172232 16 177 8.0 9.7 0.00 0.25 0.00 98 996.3
20260504171740 16 194 8.0 9.7 0.00 0.25 0.00 98 996.2
20260504171650 16 182 8.0 9.7 0.00 0.25 0.00 98 996.4
20260504170710 16 200 9.7 9.7 0.00 0.25 0.00 98 996.3
20260504170428 16 191 8.0 9.7 0.00 0.25 0.00 98 996.4
20260504150831 17 174 6.4 9.7 0.00 0.51 0.00 98 997.3
20260504150326 17 175 8.0 9.7 0.00 0.51 0.00 97 997.3
20260504141204 17 180 6.4 9.7 0.00 0.53 0.00 97 997.7
20260504140700 17 179 6.4 9.7 0.00 0.53 0.00 97 997.7
20260504140157 17 182 8.0 8.0 0.00 0.53 0.00 97 997.8
20260504130458 18 174 6.4 8.0 0.00 0.58 0.53 97 997.8
20260504110217 18 175 6.4 8.0 0.00 0.61 0.53 96 998.5
20260504100543 19 180 6.4 8.0 0.00 0.61 0.53 95 998.6
20260504081853 19 183 6.4 11.3 0.00 0.61 0.53 93 997.8
20260504081347 19 173 6.4 11.3 0.00 0.61 0.53 92 997.5
20260504080850 19 182 4.8 9.7 0.00 0.61 0.53 92 997.5
20260504080340 19 172 8.0 9.7 0.00 0.61 0.53 92 997.3
20260504070405 21 157 4.8 9.7 0.00 0.61 0.53 87 997.0
20260504060210 21 172 6.4 9.7 0.00 0.61 0.53 85 996.9
20260504050403 23 179 8.0 9.7 0.00 0.61 0.53 74 996.6
20260504045859 23 184 6.4 11.3 0.00 0.61 0.53 74 996.7
20260504045607 24 180 8.0 11.3 0.00 0.61 0.53 71 996.9
20260504044840 24 178 6.4 9.7 0.00 0.61 0.53 75 996.7
20260504044335 24 178 6.4 11.3 0.00 0.61 0.53 75 996.8
20260504043831 25 175 8.0 12.9 0.00 0.61 0.53 74 996.7
20260504043318 25 178 8.0 12.9 0.00 0.61 0.53 75 996.7
20260504042813 24 180 6.4 9.7 0.00 0.61 0.53 76 996.8
20260504042313 24 180 6.4 9.7 0.00 0.61 0.53 75 996.8
20260504041812 24 179 6.4 9.7 0.00 0.61 0.53 77 996.8
20260504041311 23 178 8.0 9.7 0.00 0.61 0.53 76 996.8
20260504040809 23 181 6.4 9.7 0.00 0.61 0.53 77 996.8
20260504040303 23 176 6.4 9.7 0.00 0.61 0.53 77 996.8
20260504035758 24 158 8.0 9.7 0.00 0.61 0.53 75 997.0
20260504035256 24 170 6.4 9.7 0.00 0.61 0.53 75 997.0
20260504034741 25 176 6.4 11.3 0.00 0.61 0.53 72 997.0
20260504034237 25 205 6.4 14.5 0.00 0.61 0.53 70 997.2
20260504033732 25 195 6.4 14.5 0.00 0.61 0.53 69 997.1
20260504033228 25 188 8.0 9.7 0.00 0.61 0.53 74 997.1
20260504032713 25 170 8.0 9.7 0.00 0.61 0.53 76 997.0
20260504032159 24 182 6.4 9.7 0.00 0.61 0.53 79 997.3
20260504031923 24 175 6.4 11.3 0.00 0.61 0.53 77 997.1
20260504031416 25 192 6.4 11.3 0.00 0.61 0.53 73 997.4
20260504030647 25 200 8.0 11.3 0.00 0.61 0.53 73 997.2
20260504030142 25 193 8.0 11.3 0.00 0.61 0.53 73 997.5
20260504025638 25 176 6.4 9.7 0.00 0.61 0.53 76 997.5
20260504025138 25 172 6.4 9.7 0.00 0.61 0.53 76 997.5
20260504024640 23 180 6.4 11.3 0.00 0.61 0.53 80 997.6